#datetime,building,power
2022-10-19T00:00:00,och,6.01
2022-10-19T00:02:00,och,11.40
2022-10-19T00:03:00,och,5.99
2022-10-19T00:05:00,och,11.41
2022-10-19T00:07:00,och,11.40
2022-10-19T00:09:00,och,11.40
2022-10-19T00:11:00,och,12.00
2022-10-19T00:12:00,och,5.41
2022-10-19T00:14:00,och,10.20
2022-10-19T00:15:00,och,6.01
2022-10-19T00:17:00,och,11.40
2022-10-19T00:19:00,och,11.40
2022-10-19T00:20:00,och,6.01
2022-10-19T00:22:00,och,11.40
2022-10-19T00:23:00,och,5.41
2022-10-19T00:25:00,och,12.00
2022-10-19T00:26:00,och,5.41
2022-10-19T00:28:00,och,21.59
2022-10-19T00:29:00,och,14.40
2022-10-19T00:31:00,och,14.40
2022-10-19T00:33:00,och,10.21
2022-10-19T00:35:00,och,11.40
2022-10-19T00:37:00,och,11.40
2022-10-19T00:39:00,och,13.20
2022-10-19T00:41:00,och,11.41
2022-10-19T00:42:00,och,5.99
2022-10-19T00:43:00,och,5.41
2022-10-19T00:45:00,och,12.00
2022-10-19T00:47:00,och,11.40
2022-10-19T00:49:00,och,11.40
2022-10-19T00:51:00,och,11.41
2022-10-19T00:52:00,och,5.99
2022-10-19T00:54:00,och,11.41
2022-10-19T00:56:00,och,11.40
2022-10-19T00:57:00,och,5.99
2022-10-19T00:59:00,och,10.21
2022-10-19T01:01:00,och,11.40
2022-10-19T01:02:00,och,5.41
2022-10-19T01:04:00,och,10.20
2022-10-19T01:06:00,och,11.40
2022-10-19T01:07:00,och,6.01
2022-10-19T01:08:00,och,5.99
2022-10-19T01:09:00,och,5.41
2022-10-19T01:11:00,och,10.20
2022-10-19T01:13:00,och,11.41
2022-10-19T01:15:00,och,11.40
2022-10-19T01:17:00,och,12.00
2022-10-19T01:19:00,och,11.40
2022-10-19T01:20:00,och,4.20
2022-10-19T01:21:00,och,6.01
2022-10-19T01:23:00,och,12.60
2022-10-19T01:25:00,och,11.40
2022-10-19T01:27:00,och,12.00
2022-10-19T01:28:00,och,4.20
2022-10-19T01:30:00,och,11.40
2022-10-19T01:32:00,och,11.40
2022-10-19T01:33:00,och,11.40
2022-10-19T01:34:00,och,6.01
2022-10-19T01:35:00,och,11.40
2022-10-19T01:37:00,och,11.40
2022-10-19T01:39:00,och,11.41
2022-10-19T01:41:00,och,12.00
2022-10-19T01:43:00,och,11.40
2022-10-19T01:44:00,och,5.41
2022-10-19T01:46:00,och,12.00
2022-10-19T01:48:00,och,11.40
2022-10-19T01:50:00,och,11.40
2022-10-19T01:52:00,och,11.41
2022-10-19T01:54:00,och,11.40
2022-10-19T01:56:00,och,12.00
2022-10-19T01:58:00,och,11.40
2022-10-19T02:00:00,och,11.41
2022-10-19T02:01:00,och,5.99
2022-10-19T02:03:00,och,12.60
2022-10-19T02:05:00,och,11.41
2022-10-19T02:06:00,och,5.99
2022-10-19T02:08:00,och,11.40
2022-10-19T02:10:00,och,10.21
2022-10-19T02:12:00,och,11.40
2022-10-19T02:14:00,och,13.20
2022-10-19T02:16:00,och,11.40
2022-10-19T02:18:00,och,11.41
2022-10-19T02:19:00,och,5.99
2022-10-19T02:20:00,och,5.41
2022-10-19T02:22:00,och,10.20
2022-10-19T02:24:00,och,11.40
2022-10-19T02:25:00,och,6.01
2022-10-19T02:27:00,och,11.40
2022-10-19T02:29:00,och,11.40
2022-10-19T02:31:00,och,12.01
2022-10-19T02:33:00,och,11.40
2022-10-19T02:35:00,och,12.60
2022-10-19T02:36:00,och,6.01
2022-10-19T02:38:00,och,11.40
2022-10-19T02:40:00,och,11.40
2022-10-19T02:42:00,och,12.00
2022-10-19T02:44:00,och,11.41
2022-10-19T02:45:00,och,5.39
2022-10-19T02:47:00,och,12.00
2022-10-19T02:48:00,och,5.41
2022-10-19T02:49:00,och,6.01
2022-10-19T02:51:00,och,11.40
2022-10-19T02:53:00,och,11.40
2022-10-19T02:54:00,och,6.01
2022-10-19T02:56:00,och,10.20
2022-10-19T02:58:00,och,11.40
2022-10-19T03:00:00,och,11.41
2022-10-19T03:02:00,och,15.59
2022-10-19T03:03:00,och,14.41
2022-10-19T03:04:00,och,14.40
2022-10-19T03:06:00,och,12.00
2022-10-19T03:07:00,och,5.39
2022-10-19T03:09:00,och,11.41
2022-10-19T03:11:00,och,10.20
2022-10-19T03:13:00,och,11.40
2022-10-19T03:15:00,och,12.00
2022-10-19T03:17:00,och,11.41
2022-10-19T03:18:00,och,5.39
2022-10-19T03:19:00,och,6.01
2022-10-19T03:21:00,och,11.40
2022-10-19T03:22:00,och,4.20
2022-10-19T03:24:00,och,12.00
2022-10-19T03:26:00,och,11.40
2022-10-19T03:27:00,och,5.41
2022-10-19T03:28:00,och,6.01
2022-10-19T03:29:00,och,5.99
2022-10-19T03:31:00,och,11.40
2022-10-19T03:33:00,och,11.41
2022-10-19T03:35:00,och,11.40
2022-10-19T03:37:00,och,13.20
2022-10-19T03:39:00,och,11.40
2022-10-19T03:40:00,och,6.01
2022-10-19T03:42:00,och,11.40
2022-10-19T03:43:00,och,5.41
2022-10-19T03:45:00,och,12.00
2022-10-19T03:47:00,och,11.40
2022-10-19T03:48:00,och,5.41
2022-10-19T03:50:00,och,12.00
2022-10-19T03:52:00,och,11.40
2022-10-19T03:53:00,och,5.41
2022-10-19T03:55:00,och,12.00
2022-10-19T03:57:00,och,11.40
2022-10-19T03:59:00,och,11.41
2022-10-19T04:01:00,och,11.40
2022-10-19T04:03:00,och,13.20
2022-10-19T04:05:00,och,15.60
2022-10-19T04:06:00,och,7.19
2022-10-19T04:07:00,och,7.21
2022-10-19T04:09:00,och,16.20
2022-10-19T04:11:00,och,15.60
2022-10-19T04:13:00,och,14.40
2022-10-19T04:15:00,och,15.60
2022-10-19T04:17:00,och,14.40
2022-10-19T04:18:00,och,8.99
2022-10-19T04:20:00,och,14.40
2022-10-19T04:21:00,och,7.21
2022-10-19T04:23:00,och,15.60
2022-10-19T04:25:00,och,14.40
2022-10-19T04:27:00,och,16.20
2022-10-19T04:29:00,och,15.60
2022-10-19T04:31:00,och,14.40
2022-10-19T04:33:00,och,17.40
2022-10-19T04:35:00,och,15.59
2022-10-19T04:36:00,och,7.21
2022-10-19T04:38:00,och,16.20
2022-10-19T04:40:00,och,15.60
2022-10-19T04:41:00,och,11.40
2022-10-19T04:43:00,och,14.40
2022-10-19T04:45:00,och,20.41
2022-10-19T04:46:00,och,8.39
2022-10-19T04:47:00,och,7.21
2022-10-19T04:48:00,och,7.19
2022-10-19T04:50:00,och,16.20
2022-10-19T04:51:00,och,7.21
2022-10-19T04:53:00,och,15.60
2022-10-19T04:55:00,och,14.40
2022-10-19T04:57:00,och,15.60
2022-10-19T04:58:00,och,10.20
2022-10-19T05:00:00,och,14.40
2022-10-19T05:02:00,och,16.20
2022-10-19T05:03:00,och,7.19
2022-10-19T05:04:00,och,7.21
2022-10-19T05:06:00,och,15.60
2022-10-19T05:08:00,och,14.40
2022-10-19T05:10:00,och,17.40
2022-10-19T05:11:00,och,7.19
2022-10-19T05:13:00,och,15.60
2022-10-19T05:14:00,och,7.21
2022-10-19T05:16:00,och,20.39
2022-10-19T05:18:00,och,30.00
2022-10-19T05:20:00,och,24.61
2022-10-19T05:21:00,och,7.19
2022-10-19T05:23:00,och,15.60
2022-10-19T05:24:00,och,7.21
2022-10-19T05:26:00,och,16.20
2022-10-19T05:28:00,och,17.40
2022-10-19T05:29:00,och,8.39
2022-10-19T05:31:00,och,17.40
2022-10-19T05:32:00,och,7.19
2022-10-19T05:34:00,och,18.60
2022-10-19T05:35:00,och,7.21
2022-10-19T05:37:00,och,20.39
2022-10-19T05:39:00,och,15.60
2022-10-19T05:40:00,och,8.41
2022-10-19T05:42:00,och,17.40
2022-10-19T05:44:00,och,21.59
2022-10-19T05:46:00,och,23.41
2022-10-19T05:47:00,och,7.19
2022-10-19T05:49:00,och,15.60
2022-10-19T05:51:00,och,15.60
2022-10-19T05:53:00,och,16.20
2022-10-19T05:54:00,och,7.19
2022-10-19T05:56:00,och,15.60
2022-10-19T05:58:00,och,14.40
2022-10-19T06:00:00,och,16.20
2022-10-19T06:01:00,och,7.21
2022-10-19T06:03:00,och,18.60
2022-10-19T06:05:00,och,14.40
2022-10-19T06:07:00,och,15.60
2022-10-19T06:09:00,och,16.20
2022-10-19T06:11:00,och,14.40
2022-10-19T06:12:00,och,8.39
2022-10-19T06:14:00,och,14.40
2022-10-19T06:15:00,och,7.21
2022-10-19T06:17:00,och,15.60
2022-10-19T06:19:00,och,14.40
2022-10-19T06:20:00,och,7.19
2022-10-19T06:22:00,och,14.40
2022-10-19T06:24:00,och,16.20
2022-10-19T06:26:00,och,14.40
2022-10-19T06:28:00,och,17.40
2022-10-19T06:30:00,och,15.60
2022-10-19T06:32:00,och,15.60
2022-10-19T06:34:00,och,19.20
2022-10-19T06:36:00,och,15.60
2022-10-19T06:38:00,och,15.60
2022-10-19T06:39:00,och,7.19
2022-10-19T06:41:00,och,16.20
2022-10-19T06:42:00,och,7.19
2022-10-19T06:44:00,och,15.60
2022-10-19T06:46:00,och,16.20
2022-10-19T06:47:00,och,7.21
2022-10-19T06:49:00,och,15.60
2022-10-19T06:50:00,och,7.19
2022-10-19T06:52:00,och,15.60
2022-10-19T06:54:00,och,16.20
2022-10-19T06:56:00,och,14.40
2022-10-19T06:58:00,och,19.80
2022-10-19T07:00:00,och,14.40
2022-10-19T07:01:00,och,8.99
2022-10-19T07:03:00,och,14.40
2022-10-19T07:05:00,och,19.80
2022-10-19T07:07:00,och,20.41
2022-10-19T07:08:00,och,10.20
2022-10-19T07:10:00,och,19.80
2022-10-19T07:11:00,och,10.20
2022-10-19T07:13:00,och,18.60
2022-10-19T07:15:00,och,20.39
2022-10-19T07:16:00,och,10.21
2022-10-19T07:18:00,och,24.59
2022-10-19T07:19:00,och,18.60
2022-10-19T07:21:00,och,33.00
2022-10-19T07:22:00,och,10.20
2022-10-19T07:24:00,och,19.80
2022-10-19T07:26:00,och,20.39
2022-10-19T07:27:00,och,10.21
2022-10-19T07:28:00,och,10.20
2022-10-19T07:30:00,och,18.60
2022-10-19T07:32:00,och,22.79
2022-10-19T07:34:00,och,21.61
2022-10-19T07:36:00,och,21.59
2022-10-19T07:38:00,och,20.41
2022-10-19T07:40:00,och,21.61
2022-10-19T07:42:00,och,19.79
2022-10-19T07:44:00,och,21.61
2022-10-19T07:46:00,och,20.39
2022-10-19T07:48:00,och,20.41
2022-10-19T07:49:00,och,9.59
2022-10-19T07:51:00,och,21.61
2022-10-19T07:52:00,och,10.20
2022-10-19T07:54:00,och,20.41
2022-10-19T07:56:00,och,21.61
2022-10-19T07:58:00,och,19.79
2022-10-19T08:00:00,och,21.61
2022-10-19T08:02:00,och,24.59
2022-10-19T08:04:00,och,23.41
2022-10-19T08:05:00,och,11.40
2022-10-19T08:07:00,och,21.59
2022-10-19T08:09:00,och,22.81
2022-10-19T08:10:00,och,11.40
2022-10-19T08:12:00,och,23.41
2022-10-19T08:14:00,och,21.59
2022-10-19T08:15:00,och,11.40
2022-10-19T08:17:00,och,22.81
2022-10-19T08:18:00,och,22.81
2022-10-19T08:19:00,och,23.39
2022-10-19T08:21:00,och,25.81
2022-10-19T08:23:00,och,24.59
2022-10-19T08:24:00,och,12.60
2022-10-19T08:26:00,och,26.40
2022-10-19T08:27:00,och,14.40
2022-10-19T08:28:00,och,15.60
2022-10-19T08:30:00,och,27.60
2022-10-19T08:32:00,och,27.01
2022-10-19T08:34:00,och,28.80
2022-10-19T08:36:00,och,28.80
2022-10-19T08:37:00,och,14.40
2022-10-19T08:39:00,och,34.80
2022-10-19T08:40:00,och,15.59
2022-10-19T08:41:00,och,17.40
2022-10-19T08:43:00,och,34.80
2022-10-19T08:45:00,och,40.20
2022-10-19T08:46:00,och,17.40
2022-10-19T08:48:00,och,41.40
2022-10-19T08:50:00,och,42.01
2022-10-19T08:51:00,och,17.39
2022-10-19T08:53:00,och,37.21
2022-10-19T08:55:00,och,38.99
2022-10-19T08:56:00,och,17.40
2022-10-19T08:58:00,och,36.01
2022-10-19T09:00:00,och,35.99
2022-10-19T09:02:00,och,37.21
2022-10-19T09:03:00,och,18.60
2022-10-19T09:05:00,och,42.00
2022-10-19T09:06:00,och,42.00
2022-10-19T09:07:00,och,38.99
2022-10-19T09:09:00,och,40.21
2022-10-19T09:11:00,och,38.99
2022-10-19T09:12:00,och,19.80
2022-10-19T09:14:00,och,57.60
2022-10-19T09:16:00,och,53.39
2022-10-19T09:18:00,och,39.01
2022-10-19T09:20:00,och,40.20
2022-10-19T09:21:00,och,18.60
2022-10-19T09:23:00,och,38.99
2022-10-19T09:25:00,och,37.21
2022-10-19T09:26:00,och,17.40
2022-10-19T09:28:00,och,38.99
2022-10-19T09:30:00,och,38.99
2022-10-19T09:32:00,och,37.21
2022-10-19T09:34:00,och,40.20
2022-10-19T09:35:00,och,21.61
2022-10-19T09:37:00,och,35.99
2022-10-19T09:39:00,och,37.81
2022-10-19T09:41:00,och,37.19
2022-10-19T09:43:00,och,39.01
2022-10-19T09:44:00,och,18.59
2022-10-19T09:46:00,och,39.01
2022-10-19T09:48:00,och,37.19
2022-10-19T09:49:00,och,19.20
2022-10-19T09:51:00,och,37.21
2022-10-19T09:52:00,och,18.59
2022-10-19T09:54:00,och,36.01
2022-10-19T09:56:00,och,36.01
2022-10-19T09:57:00,och,17.39
2022-10-19T09:59:00,och,42.01
2022-10-19T10:01:00,och,41.40
2022-10-19T10:03:00,och,37.79
2022-10-19T10:05:00,och,37.21
2022-10-19T10:07:00,och,38.99
2022-10-19T10:08:00,och,18.60
2022-10-19T10:10:00,och,40.20
2022-10-19T10:12:00,och,40.21
2022-10-19T10:14:00,och,38.99
2022-10-19T10:16:00,och,42.00
2022-10-19T10:17:00,och,18.60
2022-10-19T10:19:00,och,38.99
2022-10-19T10:21:00,och,39.01
2022-10-19T10:22:00,och,18.60
2022-10-19T10:24:00,och,43.20
2022-10-19T10:25:00,och,18.59
2022-10-19T10:27:00,och,39.01
2022-10-19T10:29:00,och,35.99
2022-10-19T10:31:00,och,37.21
2022-10-19T10:33:00,och,37.79
2022-10-19T10:35:00,och,40.21
2022-10-19T10:37:00,och,37.19
2022-10-19T10:39:00,och,36.01
2022-10-19T10:41:00,och,37.79
2022-10-19T10:42:00,och,18.60
2022-10-19T10:44:00,och,39.01
2022-10-19T10:46:00,och,38.39
2022-10-19T10:48:00,och,38.99
2022-10-19T10:49:00,och,18.60
2022-10-19T10:51:00,och,42.00
2022-10-19T10:53:00,och,51.61
2022-10-19T10:55:00,och,55.20
2022-10-19T10:57:00,och,41.40
2022-10-19T10:59:00,och,34.80
2022-10-19T11:01:00,och,36.01
2022-10-19T11:03:00,och,35.99
2022-10-19T11:05:00,och,39.01
2022-10-19T11:07:00,och,35.99
2022-10-19T11:08:00,och,18.60
2022-10-19T11:10:00,och,36.01
2022-10-19T11:11:00,och,18.59
2022-10-19T11:13:00,och,37.21
2022-10-19T11:15:00,och,36.01
2022-10-19T11:16:00,och,19.19
2022-10-19T11:18:00,och,37.21
2022-10-19T11:20:00,och,37.19
2022-10-19T11:22:00,och,36.01
2022-10-19T11:23:00,och,19.20
2022-10-19T11:25:00,och,37.19
2022-10-19T11:27:00,och,37.21
2022-10-19T11:28:00,och,20.39
2022-10-19T11:29:00,och,18.60
2022-10-19T11:31:00,och,37.81
2022-10-19T11:33:00,och,37.19
2022-10-19T11:35:00,och,37.21
2022-10-19T11:36:00,och,19.19
2022-10-19T11:38:00,och,36.01
2022-10-19T11:40:00,och,37.19
2022-10-19T11:41:00,och,18.60
2022-10-19T11:42:00,och,17.40
2022-10-19T11:44:00,och,37.21
2022-10-19T11:46:00,och,35.99
2022-10-19T11:47:00,och,19.20
2022-10-19T11:49:00,och,37.19
2022-10-19T11:50:00,och,18.60
2022-10-19T11:52:00,och,36.01
2022-10-19T11:53:00,och,18.60
2022-10-19T11:54:00,och,19.19
2022-10-19T11:56:00,och,37.21
2022-10-19T11:57:00,och,17.40
2022-10-19T11:59:00,och,37.19
2022-10-19T12:00:00,och,17.40
2022-10-19T12:02:00,och,36.01
2022-10-19T12:04:00,och,37.19
2022-10-19T12:06:00,och,36.01
2022-10-19T12:07:00,och,17.40
2022-10-19T12:09:00,och,35.99
2022-10-19T12:11:00,och,36.01
2022-10-19T12:12:00,och,18.60
2022-10-19T12:13:00,och,20.39
2022-10-19T12:15:00,och,37.21
2022-10-19T12:17:00,och,37.79
2022-10-19T12:19:00,och,37.21
2022-10-19T12:21:00,och,37.79
2022-10-19T12:23:00,och,37.21
2022-10-19T12:25:00,och,44.40
2022-10-19T12:26:00,och,19.19
2022-10-19T12:28:00,och,40.21
2022-10-19T12:30:00,och,41.40
2022-10-19T12:31:00,och,21.61
2022-10-19T12:33:00,och,42.00
2022-10-19T12:35:00,och,44.40
2022-10-19T12:36:00,och,21.59
2022-10-19T12:38:00,och,43.20
2022-10-19T12:39:00,och,20.41
2022-10-19T12:41:00,och,42.00
2022-10-19T12:43:00,och,41.41
2022-10-19T12:45:00,och,43.20
2022-10-19T12:47:00,och,54.59
2022-10-19T12:49:00,och,60.60
2022-10-19T12:51:00,och,49.20
2022-10-19T12:53:00,och,41.40
2022-10-19T12:55:00,och,38.99
2022-10-19T12:57:00,och,42.01
2022-10-19T12:59:00,och,40.20
2022-10-19T13:01:00,och,40.20
2022-10-19T13:02:00,och,20.41
2022-10-19T13:03:00,och,19.80
2022-10-19T13:05:00,och,38.99
2022-10-19T13:06:00,och,18.60
2022-10-19T13:08:00,och,38.99
2022-10-19T13:10:00,och,38.99
2022-10-19T13:11:00,och,20.41
2022-10-19T13:13:00,och,38.41
2022-10-19T13:14:00,och,20.39
2022-10-19T13:16:00,och,39.01
2022-10-19T13:18:00,och,40.20
2022-10-19T13:20:00,och,40.20
2022-10-19T13:22:00,och,39.01
2022-10-19T13:24:00,och,38.99
2022-10-19T13:26:00,och,38.99
2022-10-19T13:27:00,och,21.61
2022-10-19T13:29:00,och,41.40
2022-10-19T13:30:00,och,20.41
2022-10-19T13:32:00,och,41.40
2022-10-19T13:34:00,och,40.80
2022-10-19T13:35:00,och,18.60
2022-10-19T13:37:00,och,39.01
2022-10-19T13:38:00,och,19.79
2022-10-19T13:40:00,och,39.01
2022-10-19T13:41:00,och,18.59
2022-10-19T13:42:00,och,20.41
2022-10-19T13:44:00,och,37.21
2022-10-19T13:46:00,och,40.20
2022-10-19T13:48:00,och,38.99
2022-10-19T13:50:00,och,39.01
2022-10-19T13:52:00,och,38.99
2022-10-19T13:53:00,och,19.80
2022-10-19T13:55:00,och,38.99
2022-10-19T13:57:00,och,39.01
2022-10-19T13:59:00,och,40.20
2022-10-19T14:01:00,och,49.20
2022-10-19T14:03:00,och,54.59
2022-10-19T14:05:00,och,38.99
2022-10-19T14:07:00,och,40.21
2022-10-19T14:09:00,och,42.00
2022-10-19T14:11:00,och,40.20
2022-10-19T14:12:00,och,19.80
2022-10-19T14:14:00,och,40.80
2022-10-19T14:15:00,och,19.80
2022-10-19T14:17:00,och,40.20
2022-10-19T14:18:00,och,21.61
2022-10-19T14:20:00,och,42.00
2022-10-19T14:22:00,och,43.20
2022-10-19T14:24:00,och,40.20
2022-10-19T14:25:00,och,20.41
2022-10-19T14:27:00,och,38.99
2022-10-19T14:28:00,och,19.80
2022-10-19T14:29:00,och,20.41
2022-10-19T14:31:00,och,38.99
2022-10-19T14:33:00,och,38.41
2022-10-19T14:34:00,och,20.39
2022-10-19T14:36:00,och,46.20
2022-10-19T14:38:00,och,55.80
2022-10-19T14:39:00,och,20.41
2022-10-19T14:40:00,och,20.41
2022-10-19T14:42:00,och,38.39
2022-10-19T14:43:00,och,20.41
2022-10-19T14:45:00,och,40.20
2022-10-19T14:47:00,och,38.99
2022-10-19T14:49:00,och,40.21
2022-10-19T14:51:00,och,38.99
2022-10-19T14:52:00,och,20.41
2022-10-19T14:54:00,och,40.20
2022-10-19T14:56:00,och,39.01
2022-10-19T14:58:00,och,40.20
2022-10-19T15:00:00,och,38.99
2022-10-19T15:01:00,och,19.80
2022-10-19T15:03:00,och,38.99
2022-10-19T15:05:00,och,40.21
2022-10-19T15:06:00,och,18.59
2022-10-19T15:08:00,och,42.01
2022-10-19T15:09:00,och,20.39
2022-10-19T15:11:00,och,38.41
2022-10-19T15:13:00,och,42.00
2022-10-19T15:15:00,och,40.20
2022-10-19T15:17:00,och,40.21
2022-10-19T15:19:00,och,40.80
2022-10-19T15:21:00,och,40.20
2022-10-19T15:22:00,och,18.60
2022-10-19T15:23:00,och,20.41
2022-10-19T15:25:00,och,40.20
2022-10-19T15:27:00,och,41.40
2022-10-19T15:29:00,och,40.80
2022-10-19T15:31:00,och,40.21
2022-10-19T15:32:00,och,18.59
2022-10-19T15:33:00,och,18.60
2022-10-19T15:35:00,och,36.01
2022-10-19T15:36:00,och,16.20
2022-10-19T15:37:00,och,14.40
2022-10-19T15:39:00,och,30.00
2022-10-19T15:40:00,och,14.40
2022-10-19T15:42:00,och,30.00
2022-10-19T15:43:00,och,14.40
2022-10-19T15:45:00,och,28.80
2022-10-19T15:46:00,och,16.20
2022-10-19T15:48:00,och,44.40
2022-10-19T15:50:00,och,38.99
2022-10-19T15:51:00,och,14.40
2022-10-19T15:53:00,och,30.00
2022-10-19T15:55:00,och,28.80
2022-10-19T15:57:00,och,30.60
2022-10-19T15:59:00,och,28.80
2022-10-19T16:01:00,och,30.00
2022-10-19T16:02:00,och,14.41
2022-10-19T16:04:00,och,28.80
2022-10-19T16:06:00,och,28.80
2022-10-19T16:08:00,och,28.80
2022-10-19T16:10:00,och,30.60
2022-10-19T16:11:00,och,14.40
2022-10-19T16:13:00,och,28.80
2022-10-19T16:15:00,och,28.80
2022-10-19T16:16:00,och,16.80
2022-10-19T16:18:00,och,28.80
2022-10-19T16:20:00,och,28.80
2022-10-19T16:21:00,och,13.20
2022-10-19T16:23:00,och,28.80
2022-10-19T16:25:00,och,27.60
2022-10-19T16:27:00,och,28.80
2022-10-19T16:29:00,och,27.01
2022-10-19T16:31:00,och,27.60
2022-10-19T16:32:00,och,14.40
2022-10-19T16:34:00,och,27.00
2022-10-19T16:36:00,och,26.40
2022-10-19T16:37:00,och,12.60
2022-10-19T16:39:00,och,27.61
2022-10-19T16:40:00,och,12.60
2022-10-19T16:42:00,och,26.40
2022-10-19T16:44:00,och,27.00
2022-10-19T16:46:00,och,25.80
2022-10-19T16:48:00,och,27.61
2022-10-19T16:50:00,och,25.78
2022-10-19T16:51:00,och,13.21
2022-10-19T16:52:00,och,14.41
2022-10-19T16:54:00,och,25.78
2022-10-19T16:56:00,och,27.60
2022-10-19T16:58:00,och,25.81
2022-10-19T17:00:00,och,25.81
2022-10-19T17:01:00,och,14.38
2022-10-19T17:03:00,och,25.81
2022-10-19T17:05:00,och,28.80
2022-10-19T17:06:00,och,21.59
2022-10-19T17:08:00,och,36.01
2022-10-19T17:09:00,och,13.18
2022-10-19T17:10:00,och,12.60
2022-10-19T17:12:00,och,24.61
2022-10-19T17:13:00,och,13.21
2022-10-19T17:15:00,och,24.58
2022-10-19T17:17:00,och,24.02
2022-10-19T17:19:00,och,26.40
2022-10-19T17:21:00,och,23.99
2022-10-19T17:23:00,och,24.61
2022-10-19T17:25:00,och,25.78
2022-10-19T17:26:00,och,25.78
2022-10-19T17:27:00,och,26.40
2022-10-19T17:29:00,och,24.02
2022-10-19T17:31:00,och,26.40
2022-10-19T17:33:00,och,25.78
2022-10-19T17:34:00,och,12.60
2022-10-19T17:36:00,och,27.60
2022-10-19T17:38:00,och,24.61
2022-10-19T17:39:00,och,11.40
2022-10-19T17:41:00,och,24.61
2022-10-19T17:42:00,och,12.60
2022-10-19T17:44:00,och,24.61
2022-10-19T17:46:00,och,23.38
2022-10-19T17:47:00,och,12.60
2022-10-19T17:49:00,och,23.41
2022-10-19T17:51:00,och,23.99
2022-10-19T17:52:00,och,13.21
2022-10-19T17:54:00,och,22.79
2022-10-19T17:56:00,och,24.61
2022-10-19T17:58:00,och,21.59
2022-10-19T18:00:00,och,21.59
2022-10-19T18:02:00,och,21.62
2022-10-19T18:04:00,och,23.38
2022-10-19T18:06:00,och,22.82
2022-10-19T18:08:00,och,22.79
2022-10-19T18:10:00,och,21.59
2022-10-19T18:11:00,och,13.21
2022-10-19T18:13:00,och,21.59
2022-10-19T18:14:00,och,11.40
2022-10-19T18:16:00,och,23.41
2022-10-19T18:18:00,och,21.59
2022-10-19T18:20:00,och,21.59
2022-10-19T18:22:00,och,21.62
2022-10-19T18:24:00,och,37.18
2022-10-19T18:26:00,och,25.81
2022-10-19T18:27:00,och,11.40
2022-10-19T18:29:00,och,21.62
2022-10-19T18:31:00,och,21.59
2022-10-19T18:33:00,och,21.59
2022-10-19T18:34:00,och,10.20
2022-10-19T18:36:00,och,21.62
2022-10-19T18:38:00,och,21.59
2022-10-19T18:39:00,och,10.20
2022-10-19T18:41:00,och,21.59
2022-10-19T18:43:00,och,22.79
2022-10-19T18:45:00,och,21.62
2022-10-19T18:47:00,och,23.38
2022-10-19T18:49:00,och,21.62
2022-10-19T18:50:00,och,11.40
2022-10-19T18:52:00,och,21.59
2022-10-19T18:53:00,och,10.20
2022-10-19T18:54:00,och,11.40
2022-10-19T18:56:00,och,21.62
2022-10-19T18:57:00,och,10.20
2022-10-19T18:59:00,och,21.59
2022-10-19T19:00:00,och,10.20
2022-10-19T19:02:00,och,22.82
2022-10-19T19:04:00,och,21.59
2022-10-19T19:06:00,och,21.59
2022-10-19T19:08:00,och,22.79
2022-10-19T19:10:00,och,21.62
2022-10-19T19:11:00,och,11.98
2022-10-19T19:12:00,och,9.61
2022-10-19T19:14:00,och,21.59
2022-10-19T19:16:00,och,23.41
2022-10-19T19:18:00,och,21.59
2022-10-19T19:19:00,och,11.40
2022-10-19T19:21:00,och,21.62
2022-10-19T19:23:00,och,20.39
2022-10-19T19:25:00,och,21.59
2022-10-19T19:27:00,och,21.59
2022-10-19T19:29:00,och,19.80
2022-10-19T19:30:00,och,10.20
2022-10-19T19:32:00,och,21.62
2022-10-19T19:33:00,och,18.60
2022-10-19T19:35:00,och,32.99
2022-10-19T19:37:00,och,20.39
2022-10-19T19:38:00,och,10.22
2022-10-19T19:39:00,och,11.40
2022-10-19T19:41:00,och,20.39
2022-10-19T19:42:00,och,11.40
2022-10-19T19:44:00,och,19.80
2022-10-19T19:46:00,och,21.59
2022-10-19T19:47:00,och,8.99
2022-10-19T19:48:00,och,7.21
2022-10-19T19:50:00,och,15.62
2022-10-19T19:52:00,och,14.38
2022-10-19T19:53:00,och,7.21
2022-10-19T19:55:00,och,13.18
2022-10-19T19:57:00,och,15.62
2022-10-19T19:59:00,och,14.38
2022-10-19T20:00:00,och,7.21
2022-10-19T20:02:00,och,14.41
2022-10-19T20:03:00,och,7.21
2022-10-19T20:05:00,och,14.38
2022-10-19T20:07:00,och,16.20
2022-10-19T20:09:00,och,14.41
2022-10-19T20:11:00,och,14.38
2022-10-19T20:12:00,och,7.21
2022-10-19T20:14:00,och,14.38
2022-10-19T20:16:00,och,14.41
2022-10-19T20:17:00,och,7.21
2022-10-19T20:19:00,och,15.59
2022-10-19T20:20:00,och,7.21
2022-10-19T20:22:00,och,14.38
2022-10-19T20:23:00,och,8.41
2022-10-19T20:25:00,och,14.41
2022-10-19T20:27:00,och,16.20
2022-10-19T20:29:00,och,14.38
2022-10-19T20:31:00,och,14.41
2022-10-19T20:32:00,och,7.18
2022-10-19T20:34:00,och,15.62
2022-10-19T20:35:00,och,7.21
2022-10-19T20:36:00,och,7.18
2022-10-19T20:38:00,och,14.41
2022-10-19T20:39:00,och,7.21
2022-10-19T20:41:00,och,14.38
2022-10-19T20:42:00,och,7.21
2022-10-19T20:44:00,och,14.38
2022-10-19T20:46:00,och,14.41
2022-10-19T20:48:00,och,14.38
2022-10-19T20:50:00,och,14.41
2022-10-19T20:51:00,och,7.21
2022-10-19T20:53:00,och,14.38
2022-10-19T20:55:00,och,14.41
2022-10-19T20:57:00,och,16.20
2022-10-19T20:58:00,och,7.21
2022-10-19T21:00:00,och,14.38
2022-10-19T21:01:00,och,7.21
2022-10-19T21:03:00,och,14.38
2022-10-19T21:05:00,och,14.41
2022-10-19T21:06:00,och,5.39
2022-10-19T21:08:00,och,14.41
2022-10-19T21:10:00,och,20.39
2022-10-19T21:12:00,och,28.80
2022-10-19T21:13:00,och,7.21
2022-10-19T21:14:00,och,7.21
2022-10-19T21:15:00,och,7.18
2022-10-19T21:17:00,och,15.62
2022-10-19T21:19:00,och,18.60
2022-10-19T21:21:00,och,21.59
2022-10-19T21:23:00,och,21.59
2022-10-19T21:24:00,och,12.01
2022-10-19T21:25:00,och,11.40
2022-10-19T21:27:00,och,22.79
2022-10-19T21:29:00,och,24.61
2022-10-19T21:30:00,och,11.40
2022-10-19T21:32:00,och,23.41
2022-10-19T21:34:00,och,23.99
2022-10-19T21:36:00,och,23.41
2022-10-19T21:37:00,och,11.40
2022-10-19T21:38:00,och,11.40
2022-10-19T21:39:00,och,11.40
2022-10-19T21:41:00,och,23.41
2022-10-19T21:43:00,och,22.79
2022-10-19T21:44:00,och,11.40
2022-10-19T21:46:00,och,23.41
2022-10-19T21:47:00,och,11.40
2022-10-19T21:48:00,och,13.18
2022-10-19T21:50:00,och,22.82
2022-10-19T21:52:00,och,22.79
2022-10-19T21:54:00,och,23.41
2022-10-19T21:56:00,och,22.79
2022-10-19T21:58:00,och,23.41
2022-10-19T22:00:00,och,22.79
2022-10-19T22:02:00,och,22.79
2022-10-19T22:03:00,och,12.01
2022-10-19T22:05:00,och,19.80
2022-10-19T22:06:00,och,10.20
2022-10-19T22:07:00,och,8.38
2022-10-19T22:09:00,och,20.42
2022-10-19T22:10:00,och,8.38
2022-10-19T22:12:00,och,19.22
2022-10-19T22:14:00,och,19.80
2022-10-19T22:15:00,och,8.99
2022-10-19T22:17:00,och,19.80
2022-10-19T22:19:00,och,20.39
2022-10-19T22:21:00,och,19.80
2022-10-19T22:23:00,och,19.19
2022-10-19T22:25:00,och,19.80
2022-10-19T22:26:00,och,10.20
2022-10-19T22:28:00,och,33.02
2022-10-19T22:29:00,och,16.20
2022-10-19T22:30:00,och,9.58